Wind_Speed
28 30 31 33 36 36 37 38 37 35 34 34 34 34 35 36 37 37 38 36 36 32 31 31 29 26 31 38 42 45 49 48 46 44 40 37 36 37
25 27 30 31 34 34 34 35 35 33 32 33 33 35 36 36 35 33 31 28 27 28 31 28 24 25 24 28 37 42 43 43 42 42 40 40 42 43
24 25 27 28 30 31 32 32 33 34 35 34 35 34 33 35 36 33 29 27 25 25 23 21 24 25 23 20 25 37 41 43 43 42 42 44 45 47
23 24 24 24 26 29 30 30 31 31 31 32 35 34 34 35 34 30 29 26 25 26 23 22 24 24 25 28 30 32 35 39 38 39 43 43 41 39
26 24 22 21 22 23 24 25 27 29 30 31 35 34 33 29 22 26 28 25 23 24 23 23 24 24 22 21 20 25 32 36 35 38 40 40 42 42
26 24 21 18 15 14 15 19 25 30 30 28 32 32 32 29 25 25 25 23 22 23 22 22 20 18 16 16 19 21 24 27 30 32 34 37 39 40
25 25 21 14 10 13 14 16 22 27 25 30 32 26 24 25 24 22 21 21 19 18 18 18 17 17 18 19 20 21 23 25 27 30 33 35 37 41
27 24 22 16 17 14 16 18 21 25 22 25 27 26 28 27 23 20 19 18 17 17 16 16 16 17 19 21 22 23 25 27 29 31 33 35 36 39
27 23 22 18 17 14 14 17 21 24 29 28 25 23 25 24 19 18 18 16 15 14 14 15 15 15 16 17 19 21 24 26 28 31 33 35 37 39
28 23 20 18 15 16 14 16 21 25 25 25 24 18 16 15 18 18 16 15 14 13 12 12 12 12 14 16 19 21 23 25 28 30 33 36 39 42
30 26 20 18 16 17 18 18 17 18 23 25 24 22 19 19 18 16 14 13 12 11 10 11 11 11 12 14 17 19 21 23 26 29 31 34 37 41
31 29 24 21 18 16 16 16 18 20 20 19 21 23 21 19 17 14 13 12 10 10 9 9 9 10 11 14 15 18 20 23 26 28 32 35 39 43
32 31 28 25 21 19 19 19 19 23 25 22 20 19 19 18 16 13 12 10 9 9 9 9 9 9 11 12 15 17 19 22 26 29 33 37 41 44
33 31 29 26 23 23 24 24 25 26 26 24 21 20 18 15 14 14 13 9 8 9 9 11 10 10 11 14 16 18 21 24 27 31 34 37 38 40
33 32 28 25 25 26 26 27 29 29 26 24 21 19 15 15 15 14 12 10 11 13 15 16 14 13 13 15 16 19 22 26 30 33 34 35 36 36
33 31 25 24 25 27 28 26 24 22 23 21 19 17 15 15 14 13 13 14 15 16 18 17 15 14 14 14 16 19 21 25 28 30 31 32 32 33
33 29 25 25 27 29 27 23 21 21 22 21 18 15 14 14 14 15 16 17 17 17 17 17 16 16 15 14 16 20 23 23 24 24 27 29 31 31
32 28 27 27 26 27 24 22 22 22 21 19 17 15 15 16 16 17 17 18 18 19 19 19 20 20 20 19 20 23 24 23 22 21 23 26 28 28
32 31 29 29 28 27 25 24 24 21 18 17 18 18 18 19 18 18 19 20 20 20 19 19 19 21 24 24 23 23 23 23 23 23 23 25 27 28
34 33 29 30 30 30 28 26 24 20 17 18 20 21 20 20 19 19 21 23 23 22 20 20 21 23 25 25 24 22 22 23 23 25 26 27 29 32
33 31 30 30 29 29 29 27 24 20 18 18 19 20 20 20 20 21 23 25 26 26 26 26 27 30 31 28 24 20 20 22 24 26 28 29 30 33
33 32 30 28 28 28 27 25 22 18 17 18 19 20 21 21 22 23 24 26 26 26 26 26 27 27 26 25 24 22 23 24 25 27 28 30 31 33
33 31 29 28 28 27 25 22 19 18 17 18 19 20 20 20 21 23 24 24 24 24 24 24 24 23 24 25 26 26 27 29 30 30 30 29 31 34
Wind_Direction
287 276 268 267 265 263 261 260 263 264 265 262 261 262 263 262 256 250 251 255 256 256 252 256 266 271 269 252 235 225 224 227 230 232 237 244 250 258
298 284 276 271 266 262 260 259 259 260 262 264 264 262 261 255 245 243 241 242 244 238 238 248 255 256 258 258 253 238 229 224 227 230 234 240 245 249
306 297 281 270 264 259 258 259 259 258 258 260 260 257 250 245 235 233 224 237 243 238 244 258 257 251 243 254 259 245 232 228 228 234 241 245 249 253
311 303 293 277 267 260 257 257 259 260 257 250 249 245 241 242 230 224 230 243 234 235 246 261 258 253 251 251 252 247 243 239 242 247 247 245 248 256
311 308 304 293 279 267 255 251 250 247 243 241 240 236 234 230 226 222 231 234 239 250 261 259 255 254 252 252 252 251 248 243 245 249 248 250 250 249
309 306 309 300 277 265 255 244 240 235 227 232 223 219 221 220 224 223 230 236 243 251 252 247 247 249 254 257 259 257 255 255 257 258 257 259 261 260
303 304 307 292 284 263 261 250 243 231 229 224 217 209 203 219 226 230 230 232 233 238 238 241 246 252 256 257 258 259 260 260 259 258 257 258 259 258
295 299 298 290 297 281 263 259 254 252 233 212 203 200 214 218 217 223 225 224 228 233 238 244 248 252 253 255 258 260 262 262 262 263 263 263 262 261
283 290 291 293 285 270 254 253 249 238 220 208 214 217 212 208 206 216 222 225 230 235 243 250 254 261 269 274 276 276 276 276 275 274 274 273 273 272
270 276 280 278 266 250 248 251 245 239 236 235 229 213 206 206 211 213 214 219 225 232 245 259 267 275 283 284 285 285 286 285 283 281 280 279 277 275
258 261 265 263 253 248 250 254 250 247 244 231 202 193 204 212 211 207 208 211 219 234 249 265 277 287 291 294 299 301 301 300 299 297 294 292 288 285
250 251 253 250 242 238 236 233 233 230 223 213 204 199 197 201 204 203 208 217 226 239 253 271 287 299 310 314 316 313 311 309 306 300 295 290 286 283
243 244 245 242 231 225 221 223 220 220 211 203 196 195 195 197 200 208 216 220 234 253 270 281 289 297 299 302 307 312 317 316 311 304 301 298 294 290
237 239 238 235 225 222 219 222 220 214 201 192 194 199 199 200 204 208 210 218 242 261 277 284 288 291 292 297 303 312 320 323 321 315 310 310 309 304
235 235 234 226 218 215 216 221 216 209 201 194 194 197 202 206 208 212 217 235 255 263 267 272 276 281 294 304 308 315 321 325 324 324 326 328 326 322
230 230 225 215 210 210 213 211 203 196 190 191 193 200 206 209 215 223 234 244 252 258 266 272 275 278 297 308 314 319 322 326 327 329 335 338 332 325
216 215 213 211 210 206 198 188 189 192 192 194 198 203 211 217 225 233 241 247 255 261 267 268 266 271 289 306 319 321 320 321 327 335 341 347 347 344
203 200 201 208 209 193 183 188 188 190 193 196 201 208 216 224 232 243 250 253 257 263 266 265 266 273 282 295 311 321 321 320 322 330 341 345 347 349
194 193 195 202 200 187 185 189 189 192 197 203 209 216 225 233 242 251 256 258 258 261 262 264 271 278 285 295 307 318 323 321 321 324 328 334 338 339
192 190 193 194 191 187 189 190 192 197 204 211 218 225 232 240 249 256 258 256 255 259 265 275 284 291 297 301 305 310 318 321 321 324 327 327 329 334
185 186 187 187 187 189 194 195 198 207 215 222 228 233 238 244 252 257 259 259 260 265 274 281 286 292 295 297 298 301 308 313 316 318 319 320 322 327
183 182 182 185 186 186 188 193 202 214 224 231 236 239 241 246 253 259 262 265 268 274 281 286 290 293 292 292 291 294 301 304 307 307 310 314 315 316
181 179 178 179 181 184 189 198 211 222 230 236 240 244 247 251 256 262 265 267 272 278 284 288 290 290 290 291 291 293 298 304 307 308 308 310 313 317
Height
5738 5737 5736 5736 5737 5739 5741 5743 5745 5746 5748 5749 5749 5749 5749 5750 5751 5754 5756 5758 5759 5761 5764 5765 5766 5767 5769 5770 5771 5772 5776 5782 5787 5792 5796 5799 5802 5802
5732 5729 5727 5726 5727 5729 5731 5733 5735 5737 5739 5740 5741 5740 5740 5741 5742 5745 5748 5750 5751 5755 5756 5758 5759 5760 5761 5764 5764 5765 5768 5773 5778 5783 5787 5790 5792 5792
5725 5721 5718 5717 5717 5719 5721 5724 5726 5729 5730 5731 5730 5731 5732 5731 5734 5737 5741 5743 5746 5748 5751 5753 5755 5754 5754 5755 5757 5759 5761 5765 5768 5773 5777 5780 5782 5784
5718 5714 5712 5710 5708 5709 5710 5713 5716 5718 5719 5720 5720 5722 5723 5722 5725 5729 5735 5739 5740 5742 5745 5747 5748 5749 5749 5751 5752 5754 5757 5760 5763 5766 5769 5772 5773 5774
5711 5708 5705 5702 5701 5700 5701 5703 5705 5707 5709 5711 5711 5713 5716 5718 5721 5725 5730 5733 5735 5737 5739 5741 5743 5744 5745 5746 5748 5749 5752 5755 5756 5758 5760 5762 5763 5764
5706 5703 5700 5697 5695 5696 5696 5697 5697 5697 5699 5703 5704 5706 5711 5714 5716 5720 5724 5727 5729 5732 5734 5736 5737 5739 5740 5741 5743 5745 5747 5748 5750 5751 5752 5754 5755 5756
5702 5698 5695 5693 5692 5693 5692 5693 5693 5693 5695 5697 5701 5702 5706 5707 5712 5715 5718 5721 5724 5726 5729 5731 5732 5734 5735 5735 5737 5739 5740 5741 5742 5743 5744 5745 5746 5747
5696 5693 5691 5689 5688 5688 5689 5689 5690 5689 5690 5692 5695 5698 5702 5705 5707 5711 5714 5717 5720 5723 5724 5725 5726 5728 5728 5730 5731 5732 5734 5735 5735 5736 5736 5737 5737 5737
5689 5687 5686 5684 5682 5683 5684 5685 5686 5686 5688 5691 5692 5694 5698 5700 5702 5706 5711 5714 5717 5719 5720 5720 5720 5721 5722 5722 5724 5725 5726 5727 5727 5727 5727 5726 5726 5725
5682 5680 5680 5679 5677 5678 5680 5681 5682 5683 5685 5687 5689 5693 5696 5698 5702 5704 5707 5711 5714 5715 5716 5716 5715 5715 5716 5716 5717 5717 5717 5717 5717 5716 5716 5715 5714 5713
5674 5674 5673 5673 5672 5672 5675 5677 5677 5678 5680 5682 5684 5688 5693 5698 5700 5702 5705 5708 5710 5711 5712 5712 5712 5711 5711 5711 5710 5710 5709 5708 5708 5707 5706 5704 5703 5701
5663 5665 5666 5667 5667 5667 5669 5671 5674 5676 5678 5680 5683 5686 5690 5694 5698 5700 5703 5705 5706 5707 5708 5708 5708 5707 5706 5704 5704 5704 5703 5702 5701 5700 5697 5695 5692 5689
5651 5655 5657 5659 5661 5663 5665 5667 5670 5673 5674 5678 5682 5686 5689 5692 5695 5696 5699 5701 5703 5704 5704 5704 5703 5703 5703 5703 5702 5701 5698 5696 5694 5692 5688 5683 5679 5674
5641 5646 5649 5651 5654 5657 5660 5663 5666 5669 5671 5676 5680 5684 5688 5690 5691 5694 5696 5698 5699 5700 5700 5700 5700 5699 5699 5698 5697 5695 5693 5690 5687 5682 5677 5672 5666 5659
5630 5636 5639 5643 5647 5651 5654 5657 5661 5665 5668 5673 5678 5682 5684 5687 5689 5691 5693 5694 5696 5696 5696 5697 5696 5695 5693 5692 5691 5688 5685 5681 5677 5672 5666 5660 5653 5646
5621 5626 5631 5637 5641 5645 5648 5651 5656 5662 5667 5671 5675 5678 5681 5683 5685 5687 5689 5691 5692 5692 5692 5691 5691 5690 5688 5686 5685 5682 5679 5676 5671 5666 5659 5652 5646 5640
5612 5619 5625 5632 5636 5639 5643 5649 5655 5660 5665 5669 5672 5674 5678 5680 5682 5684 5686 5686 5686 5686 5685 5685 5686 5686 5684 5682 5680 5678 5674 5670 5665 5660 5654 5648 5642 5637
5608 5614 5621 5627 5633 5636 5642 5648 5653 5658 5663 5666 5669 5672 5675 5678 5679 5680 5681 5681 5681 5681 5681 5682 5681 5680 5678 5676 5674 5671 5667 5664 5660 5655 5649 5644 5639 5633
5602 5611 5618 5625 5630 5634 5641 5646 5651 5656 5660 5663 5666 5669 5672 5674 5674 5675 5675 5676 5676 5677 5677 5676 5675 5674 5672 5669 5666 5664 5660 5656 5653 5648 5643 5638 5633 5628
5598 5607 5615 5622 5627 5633 5639 5644 5649 5653 5656 5660 5663 5665 5667 5668 5669 5670 5671 5671 5672 5672 5671 5670 5668 5666 5664 5662 5659 5656 5653 5649 5646 5641 5637 5631 5626 5621
5595 5604 5612 5619 5624 5630 5637 5642 5646 5650 5653 5656 5659 5661 5662 5663 5665 5666 5667 5666 5666 5666 5665 5663 5661 5659 5656 5654 5652 5649 5646 5642 5639 5635 5631 5626 5620 5615
5593 5601 5609 5615 5621 5628 5634 5639 5644 5647 5650 5653 5655 5656 5658 5660 5661 5662 5661 5661 5660 5659 5658 5656 5654 5651 5648 5646 5644 5641 5638 5635 5632 5629 5625 5619 5614 5609
5595 5601 5607 5613 5620 5626 5632 5637 5641 5644 5647 5649 5651 5653 5655 5656 5656 5656 5655 5654 5653 5652 5650 5648 5645 5643 5640 5638 5636 5633 5630 5627 5623 5619 5617 5613 5608 5603